Location: Hiram
(41.3130°N, 81.1440°W)
Time: 18:26:13
(UTC-04:00)

Amateur Radio Satellites - All Passes

Search period start: 01 August 2014 17:56
Search period end: 02 August 2014 17:56
Location: Hiram, 41.3130°N, 81.1440°W

Satellite Date Start Highest point End Downlink Frequencies (MHz)
Time Altitude Azimuth
JAS-2 01 Aug 17:57:09 18:04:11 41° 67° (ENE) 18:10:42 435.800 - 435.900 CW/SSB, 435.910 FM
AO-7 01 Aug 18:24:23 18:31:00 26° 266° (W) 18:37:40 29.400 - 29.500 MHz
OPAL 01 Aug 18:43:47 18:48:06 29° 296° (WNW) 18:52:28 ?
Hamsat 01 Aug 19:03:30 19:07:30 46° 261° (W) 19:11:34 145.90 MHz
SO-50 01 Aug 19:24:26 19:27:00 14° 38° (NE) 19:29:35 436.795 FM
STRAND 1 01 Aug 19:34:25 19:38:56 31° 96° (E) 19:43:25 ?
JAS-2 01 Aug 19:41:51 19:49:06 43° 263° (W) 19:55:53 435.800 - 435.900 CW/SSB, 435.910 FM
SO-67 01 Aug 19:56:25 19:59:52 71° 259° (W) 20:03:21 435.3500 MHz FM
MaSat-1 01 Aug 20:09:52 20:12:52 20° 101° (ESE) 20:16:11 437.345 MHz
RS-15 01 Aug 20:11:15 20:20:21 28° 28° (NNE) 20:29:37 29.354 - 29.394 USB, Beacon 29.352 USB
HO-68 01 Aug 20:33:39 20:39:58 35° 62° (ENE) 20:46:17 435.675 MHz FM
SO-50 01 Aug 21:03:32 21:08:19 81° 57° (ENE) 21:13:08 436.795 FM
UOSAT-12 01 Aug 21:03:38 21:05:13 11° 34° (NNE) 21:06:47 437.025 FM, 437.400 FM
STRAND 1 01 Aug 21:13:37 21:18:04 31° 293° (WNW) 21:22:30 ?
UKube-1 01 Aug 21:36:13 21:40:29 55° 73° (ENE) 21:44:46 145.840 MHz, 145.915 MHz
MaSat-1 01 Aug 21:45:41 21:49:43 42° 303° (WNW) 21:54:21 437.345 MHz
Oscar 11 01 Aug 22:16:52 22:21:09 77° 76° (ENE) 22:25:28 145.825 FM, Beacon 2401.500 USB
HO-68 01 Aug 22:20:38 22:27:27 47° 260° (W) 22:34:19 435.675 MHz FM
RS-15 01 Aug 22:23:44 22:34:49 77° 55° (NE) 22:46:18 29.354 - 29.394 USB, Beacon 29.352 USB
UOSAT-12 01 Aug 22:41:41 22:46:22 59° 54° (NE) 22:50:59 437.025 FM, 437.400 FM
SO-50 01 Aug 22:46:26 22:48:15 12° 253° (WSW) 22:50:04 436.795 FM
FUNcube-1 01 Aug 22:49:58 22:54:12 64° 75° (ENE) 22:58:22 145.950 - 145.970 MHz USB
ISS 01 Aug 22:51:00 22:54:18 72° 142° (SE) 22:57:38 145.800 FM
UKube-1 01 Aug 23:14:54 23:17:01 13° 269° (W) 23:19:08 145.840 MHz, 145.915 MHz
PCSat 01 Aug 23:17:48 23:21:05 17° 104° (ESE) 23:24:23 145.825 MHz
UOSAT-12 02 Aug 00:23:07 00:26:02 16° 251° (WSW) 00:28:55 437.025 FM, 437.400 FM
Sapphire 02 Aug 00:25:37 00:30:55 61° 115° (ESE) 00:36:16 437.095 MHz 1200 baud AX-25 AFSK
ISS 02 Aug 00:28:36 00:31:18 22° 340° (NNW) 00:34:01 145.800 FM
FUNcube-1 02 Aug 00:30:05 00:31:00 11° 270° (W) 00:31:54 145.950 - 145.970 MHz USB
RS-15 02 Aug 00:37:13 00:46:07 29° 256° (WSW) 00:55:19 29.354 - 29.394 USB, Beacon 29.352 USB
Oscar 10/S400 02 Aug 00:48:12 01:18:13 64° 179° (S) 10:23:09 145.825 - 145.975 CW/USB, Beacon 145.810 USB
PCSat 02 Aug 00:58:31 01:03:54 68° 301° (WNW) 01:09:19 145.825 MHz
AO-40 02 Aug 01:42:21 03:41:57 18° 119° (ESE) 04:47:33 Beacon 2401.320
ISS 02 Aug 02:07:04 02:08:56 14° 1° (N) 02:10:49 145.800 FM
Sapphire 02 Aug 02:10:34 02:14:46 23° 314° (NW) 02:19:00 437.095 MHz 1200 baud AX-25 AFSK
Oscar 19 02 Aug 02:23:50 02:28:28 32° 96° (E) 02:33:05 437.125 CW, 437.150 USB
PCSat 02 Aug 02:45:49 02:48:22 13° 322° (NW) 02:50:56 145.825 MHz
Oscar 16 02 Aug 02:52:39 02:57:48 64° 102° (ESE) 03:02:56 437.025 USB, Beacon 2401.1428
Gurwin Techsat 1B 02 Aug 02:53:24 02:54:51 11° 88° (E) 02:56:17 435.225 FM
JAS-1B 02 Aug 02:53:25 03:00:43 27° 88° (E) 03:07:06 435.800 - 435.900 CW/SSB
ITAMSAT 1 02 Aug 03:22:42 03:27:45 52° 100° (E) 03:32:46 435.822 SSB
Uribyol 2 02 Aug 03:40:56 03:46:07 83° 104° (ESE) 03:51:17 436.500 FM
AO-27 02 Aug 03:43:01 03:48:14 83° 104° (ESE) 03:53:24 436.795 MHz FM
ISS 02 Aug 03:43:46 03:46:33 24° 21° (NNE) 03:49:21 145.800 FM
AO-Echo 02 Aug 03:44:46 03:49:49 89° 284° (WNW) 03:54:39 ?
TMSAT-1 02 Aug 04:03:05 04:08:02 39° 98° (E) 04:12:56 436.925 FM
Oscar 19 02 Aug 04:03:13 04:07:44 31° 293° (WNW) 04:12:14 437.125 CW, 437.150 USB
PANSAT 02 Aug 04:11:51 04:12:57 11° 173° (S) 04:14:04 not established
OPAL 02 Aug 04:19:44 04:24:36 64° 71° (ENE) 04:29:31 ?
Gurwin Techsat 1B 02 Aug 04:30:08 04:35:29 87° 285° (WNW) 04:40:47 435.225 FM
AO-7 02 Aug 04:32:14 04:38:18 22° 92° (E) 04:44:17 29.400 - 29.500 MHz
Oscar 16 02 Aug 04:33:22 04:36:37 17° 298° (WNW) 04:39:53 437.025 USB, Beacon 2401.1428
KITSAT 1 02 Aug 04:37:55 04:43:17 20° 102° (ESE) 04:48:38 435.175 FM
JAS-1B 02 Aug 04:42:55 04:52:03 68° 290° (WNW) 04:59:44 435.800 - 435.900 CW/SSB
ITAMSAT 1 02 Aug 05:03:09 05:06:51 20° 297° (WNW) 05:10:32 435.822 SSB
ISS 02 Aug 05:20:11 05:23:31 65° 219° (SW) 05:26:50 145.800 FM
Uribyol 2 02 Aug 05:22:31 05:24:53 13° 301° (WNW) 05:27:16 436.500 FM
AO-27 02 Aug 05:24:37 05:27:02 13° 301° (WNW) 05:29:26 436.795 MHz FM
AO-Echo 02 Aug 05:26:19 05:27:44 11° 302° (WNW) 05:29:08 ?
TMSAT-1 02 Aug 05:43:22 05:47:46 27° 294° (WNW) 05:52:08 436.925 FM
Uosat F 02 Aug 05:45:30 05:50:32 78° 103° (ESE) 05:55:31 435.120 FM
PANSAT 02 Aug 05:51:01 05:52:21 12° 186° (S) 05:53:42 not established
OPAL 02 Aug 06:01:18 06:03:55 14° 267° (W) 06:06:34 ?
MaSat-1 02 Aug 06:03:34 06:08:44 51° 59° (ENE) 06:13:33 437.345 MHz
Gurwin Techsat 1B 02 Aug 06:12:38 06:14:38 12° 302° (WNW) 06:16:37 435.225 FM
AO-7 02 Aug 06:23:32 06:31:53 79° 290° (WNW) 06:40:09 29.400 - 29.500 MHz
KITSAT 1 02 Aug 06:29:32 06:37:39 86° 300° (WNW) 06:45:48 435.175 FM
JAS-1B 02 Aug 06:35:24 06:40:37 17° 313° (NW) 06:45:28 435.800 - 435.900 CW/SSB
Hamsat 02 Aug 06:49:13 06:53:03 30° 96° (E) 06:56:52 145.90 MHz
STRAND 1 02 Aug 06:50:15 06:55:08 46° 70° (ENE) 07:00:02 ?
JAS-2 02 Aug 06:52:45 06:57:28 27° 93° (E) 07:01:52 435.800 - 435.900 CW/SSB, 435.910 FM
Saudisat 1A 02 Aug 07:15:53 07:20:18 79° 121° (ESE) 07:24:44 436.775 MHz
Uosat F 02 Aug 07:26:17 07:28:39 14° 301° (WNW) 07:31:01 435.120 FM
Sapphire 02 Aug 07:33:22 07:34:04 10° 34° (NE) 07:34:46 437.095 MHz 1200 baud AX-25 AFSK
MaSat-1 02 Aug 07:41:46 07:45:36 21° 258° (WSW) 07:49:14 437.345 MHz
PCSat 02 Aug 08:04:11 08:07:46 18° 42° (NE) 08:11:20 145.825 MHz
AO-7 02 Aug 08:18:05 08:23:23 19° 311° (NW) 08:28:41 29.400 - 29.500 MHz
Hamsat 02 Aug 08:25:24 08:28:53 24° 292° (WNW) 08:32:22 145.90 MHz
KITSAT 1 02 Aug 08:27:51 08:34:14 25° 323° (NW) 08:40:38 435.175 FM
STRAND 1 02 Aug 08:30:40 08:34:32 21° 267° (W) 08:38:25 ?
JAS-2 02 Aug 08:37:28 08:42:45 38° 293° (WNW) 08:47:36 435.800 - 435.900 CW/SSB, 435.910 FM
SO-67 02 Aug 08:53:17 08:56:43 57° 284° (WNW) 09:00:06 435.3500 MHz FM
Saudisat 1A 02 Aug 08:57:47 09:00:26 15° 320° (NW) 09:03:06 436.775 MHz
Sapphire 02 Aug 09:13:35 09:18:52 49° 55° (NE) 09:24:06 437.095 MHz 1200 baud AX-25 AFSK
PCSat 02 Aug 09:46:27 09:51:54 85° 242° (WSW) 09:57:19 145.825 MHz
HO-68 02 Aug 09:48:10 09:54:35 35° 97° (E) 10:00:56 435.675 MHz FM
Oscar 11 02 Aug 10:06:04 10:08:21 14° 91° (E) 10:10:37 145.825 FM, Beacon 2401.500 USB
KITSAT 1 02 Aug 10:31:07 10:33:16 11° 353° (N) 10:35:25 435.175 FM
FUNcube-1 02 Aug 10:41:05 10:42:37 12° 91° (E) 10:44:09 145.950 - 145.970 MHz USB
Sapphire 02 Aug 10:57:42 11:01:56 24° 253° (WSW) 11:06:09 437.095 MHz 1200 baud AX-25 AFSK
UKube-1 02 Aug 11:00:30 11:04:51 79° 285° (WNW) 11:09:11 145.840 MHz, 145.915 MHz
SO-50 02 Aug 11:19:28 11:23:05 25° 112° (ESE) 11:26:46 436.795 FM
PCSat 02 Aug 11:33:17 11:34:26 11° 259° (WSW) 11:35:35 145.825 MHz
HO-68 02 Aug 11:35:39 11:42:23 46° 294° (WNW) 11:49:05 435.675 MHz FM
Oscar 11 02 Aug 11:40:36 11:44:50 51° 287° (WNW) 11:49:02 145.825 FM, Beacon 2401.500 USB
FUNcube-1 02 Aug 12:15:14 12:19:22 57° 286° (WNW) 12:23:32 145.950 - 145.970 MHz USB
KITSAT 1 02 Aug 12:28:22 12:33:00 16° 24° (NNE) 12:37:36 435.175 FM
Oscar 16 02 Aug 12:34:18 12:36:14 12° 58° (ENE) 12:38:10 437.025 USB, Beacon 2401.1428
RS-15 02 Aug 12:47:17 12:57:45 49° 111° (ESE) 13:08:00 29.354 - 29.394 USB, Beacon 29.352 USB
UOSAT-12 02 Aug 12:54:30 12:57:29 17° 109° (ESE) 13:00:30 437.025 FM, 437.400 FM
SO-50 02 Aug 12:59:17 13:03:27 37° 310° (NW) 13:07:42 436.795 FM
ITAMSAT 1 02 Aug 13:06:03 13:07:15 11° 57° (ENE) 13:08:28 435.822 SSB
AO-Echo 02 Aug 13:21:05 13:24:15 16° 61° (ENE) 13:27:25 ?
Uribyol 2 02 Aug 13:22:01 13:25:11 17° 61° (ENE) 13:28:20 436.500 FM
AO-27 02 Aug 13:24:16 13:27:30 17° 61° (ENE) 13:30:43 436.795 MHz FM
JAS-1B 02 Aug 13:36:16 13:43:50 29° 56° (NE) 13:51:43 435.800 - 435.900 CW/SSB
Oscar 19 02 Aug 13:40:43 13:45:35 47° 71° (ENE) 13:50:29 437.125 CW, 437.150 USB
Saudisat 1A 02 Aug 14:05:31 14:06:36 11° 35° (NE) 14:07:40 436.775 MHz
Oscar 16 02 Aug 14:09:42 14:14:49 89° 256° (WSW) 14:19:58 437.025 USB, Beacon 2401.1428
Gurwin Techsat 1B 02 Aug 14:13:25 14:17:09 20° 63° (ENE) 14:20:54 435.225 FM
KITSAT 1 02 Aug 14:22:56 14:30:43 48° 50° (NE) 14:38:25 435.175 FM
UOSAT-12 02 Aug 14:32:39 14:37:10 55° 307° (NW) 14:41:48 437.025 FM, 437.400 FM
ITAMSAT 1 02 Aug 14:40:40 14:45:53 80° 75° (ENE) 14:51:06 435.822 SSB
AO-Echo 02 Aug 14:57:06 15:02:25 72° 258° (WSW) 15:07:43 ?
Uribyol 2 02 Aug 14:58:57 15:04:06 67° 258° (WSW) 15:09:16 436.500 FM
RS-15 02 Aug 14:59:20 15:10:02 52° 314° (NW) 15:20:39 29.354 - 29.394 USB, Beacon 29.352 USB
AO-27 02 Aug 15:01:17 15:06:27 66° 258° (WSW) 15:11:40 436.795 MHz FM
Oscar 19 02 Aug 15:21:23 15:25:09 21° 267° (W) 15:28:58 437.125 CW, 437.150 USB
Uosat F 02 Aug 15:23:06 15:25:38 14° 60° (ENE) 15:28:11 435.120 FM
TMSAT-1 02 Aug 15:23:48 15:29:00 61° 73° (ENE) 15:34:13 436.925 FM
JAS-1B 02 Aug 15:24:00 15:33:10 82° 256° (WSW) 15:43:11 435.800 - 435.900 CW/SSB
AO-7 02 Aug 15:31:09 15:38:17 33° 58° (ENE) 15:45:24 29.400 - 29.500 MHz
Saudisat 1A 02 Aug 15:42:41 15:47:05 63° 55° (NE) 15:51:26 436.775 MHz
Gurwin Techsat 1B 02 Aug 15:51:29 15:56:41 56° 260° (W) 16:01:55 435.225 FM
UOSAT-12 02 Aug 16:17:15 16:18:23 11° 327° (NNW) 16:19:32 437.025 FM, 437.400 FM
KITSAT 1 02 Aug 16:18:35 16:26:00 42° 250° (WSW) 16:33:24 435.175 FM
ITAMSAT 1 02 Aug 16:23:58 16:25:57 12° 271° (W) 16:27:57 435.822 SSB
OPAL 02 Aug 16:30:41 16:33:53 17° 94° (E) 16:37:06 ?
Uosat F 02 Aug 16:58:44 17:03:47 76° 257° (WSW) 17:08:51 435.120 FM
JAS-2 02 Aug 17:05:14 17:09:54 18° 59° (ENE) 17:14:19 435.800 - 435.900 CW/SSB, 435.910 FM
TMSAT-1 02 Aug 17:05:59 17:09:19 17° 269° (W) 17:12:40 436.925 FM
RS-15 02 Aug 17:17:44 17:25:47 22° 345° (NNW) 17:33:53 29.354 - 29.394 USB, Beacon 29.352 USB
JAS-1B 02 Aug 17:18:58 17:25:02 19° 276° (W) 17:31:28 435.800 - 435.900 CW/SSB
AO-7 02 Aug 17:22:21 17:30:35 61° 257° (WSW) 17:38:52 29.400 - 29.500 MHz
Saudisat 1A 02 Aug 17:23:56 17:26:08 14° 251° (WSW) 17:28:20 436.775 MHz
Hamsat 02 Aug 17:43:15 17:46:27 22° 67° (ENE) 17:49:41 145.90 MHz
